This is the latest recevied weather packets stored in our database for station/object YD2CLX-13. If no packets are shown the sender has not sent any weather packets the latest 10 day(s).
| Time | Temp. | Humidity | Pressure | Rain* | Wind** | Luminosity | Snow |
|---|---|---|---|---|---|---|---|
| 1787447500 | 13.33° C | 51% | 800.8 hPa | 0 mm | - | - | - |
| 1787446892 | 13.33° C | 52% | 800.8 hPa | 0 mm | - | - | - |
| 1787445677 | 13.33° C | 51% | 800.6 hPa | 0 mm | - | - | - |
| 1787445069 | 20° C | 51% | 800.4 hPa | 0 mm | - | - | - |
| 1787444456 | 18.33° C | 52% | 800.4 hPa | 0 mm | - | - | - |
| 1787443228 | 13.89° C | 53% | 800.2 hPa | 0 mm | - | - | - |
| 1787441385 | 2.22° C | 54% | 799.9 hPa | 0 mm | - | - | - |
| 1787439544 | 2.78° C | 53% | 799.6 hPa | 0 mm | - | - | - |
| 1787438929 | 2.22° C | 53% | 799.5 hPa | 0 mm | - | - | - |
| 1787434633 | 1.67° C | 55% | 798.9 hPa | 0 mm | - | - | - |
| 1787434019 | 1.67° C | 56% | 798.8 hPa | 0 mm | - | - | - |
| 1787433404 | 1.67° C | 56% | 798.7 hPa | 0 mm | - | - | - |
| 1787430950 | 0° C | 57% | 798.6 hPa | 0 mm | - | - | - |
| 1787430336 | 0° C | 57% | 798.5 hPa | 0 mm | - | - | - |
| 1787427266 | 0° C | 57% | 798.5 hPa | 0 mm | - | - | - |
| 1787426652 | 0° C | 57% | 798.6 hPa | 0 mm | - | - | - |
| 1787423583 | -1.11° C | 57% | 798.6 hPa | 0 mm | - | - | - |
| 1787422969 | -0.56° C | 57% | 798.7 hPa | 0 mm | - | - | - |
| 1787420513 | 0° C | 56% | 799.2 hPa | 0 mm | - | - | - |
| 1787419284 | -0.56° C | 56% | 799.4 hPa | 0 mm | - | - | - |
| 1787418056 | 0° C | 55% | 799.5 hPa | 0 mm | - | - | - |
| 1787417443 | 1.11° C | 56% | 799.7 hPa | 0 mm | - | - | - |
| 1787416828 | 0.56° C | 56% | 799.8 hPa | 0 mm | - | - | - |
| 1787412531 | 1.11° C | 54% | 800.4 hPa | 0 mm | - | - | - |
| 1787409478 | 1.67° C | 55% | 800.4 hPa | 0 mm | - | - | - |
* Rain latest hour (hover to see other rain measurements)
** Current wind speed in m/s (hover to see current wind gust speed)